Location: Castelbiague
(43.0361°N, 0.9246°E)
Time: 18:59:17
(UTC+00:00)

Meteor 1-4 Rocket - Pass Details

Date: 26 October 2021
Orbit: 447 x 496 km, 81.2° (Epoch: 04 December)

Event Time Altitude Azimuth Distance (km) Brightness Sun altitude
Rises 19:06:42 0° 229° (SW) 2,460 6.8 -24.4°
Reaches altitude 10° 19:09:28 10° 253° (WSW) 1,585 6.0 -24.9°
Maximum altitude 19:11:32 15° 290° (WNW) 1,312 5.6 -25.3°
Drops below altitude 10° 19:13:35 10° 327° (NNW) 1,585 5.6 -25.6°
Sets 19:16:22 0° 352° (N) 2,460 6.3 -26.1°
